Time,TemperatureF,DewpointF,PressureIn,WindDirection,WindDirectionDegrees,WindSpeedMPH,WindSpeedGustMPH,Humidity,HourlyPrecipIn,Conditions,Clouds,dailyrainin,SoftwareType,DateUTC
2013-06-25 00:02:00,70.3,67.0,30.13,South,183,3.0,5.0,90,0.00,,,0.00,weatherlink.com 1.10,2013-06-25 04:02:00,
2013-06-25 00:17:00,70.4,67.0,30.13,SSW,205,1.0,5.0,89,0.00,,,0.00,weatherlink.com 1.10,2013-06-25 04:17:00,
2013-06-25 00:33:00,70.1,67.0,30.14,SW,219,0.0,2.0,90,0.00,,,0.00,weatherlink.com 1.10,2013-06-25 04:33:00,
2013-06-25 00:48:00,69.7,67.0,30.13,SSE,167,1.0,1.0,91,0.00,,,0.00,weatherlink.com 1.10,2013-06-25 04:48:00,
2013-06-25 01:18:00,70.0,67.0,30.14,NNE,27,2.0,4.0,91,0.00,,,0.00,weatherlink.com 1.10,2013-06-25 05:18:00,
2013-06-25 01:33:00,69.4,67.0,30.14,NE,44,1.0,1.0,92,0.00,,,0.00,weatherlink.com 1.10,2013-06-25 05:33:00,
2013-06-25 01:48:00,69.3,67.0,30.13,NNW,328,0.0,2.0,92,0.00,,,0.00,weatherlink.com 1.10,2013-06-25 05:48:00,
2013-06-25 02:03:00,68.5,67.0,30.13,SW,228,0.0,1.0,93,0.00,,,0.00,weatherlink.com 1.10,2013-06-25 06:03:00,
2013-06-25 02:18:00,69.0,67.0,30.13,NNW,333,1.0,3.0,94,0.00,,,0.00,weatherlink.com 1.10,2013-06-25 06:18:00,
2013-06-25 02:33:00,68.1,66.0,30.12,NNE,23,3.0,6.0,94,0.00,,,0.00,weatherlink.com 1.10,2013-06-25 06:33:00,
2013-06-25 02:48:00,68.3,67.0,30.12,WSW,253,0.0,1.0,94,0.00,,,0.00,weatherlink.com 1.10,2013-06-25 06:48:00,
2013-06-25 03:03:00,68.4,67.0,30.11,NW,307,1.0,2.0,94,0.00,,,0.00,weatherlink.com 1.10,2013-06-25 07:03:00,
2013-06-25 03:19:00,68.1,66.0,30.11,North,349,0.0,3.0,94,0.00,,,0.00,weatherlink.com 1.10,2013-06-25 07:19:00,
2013-06-25 03:33:00,67.4,66.0,30.10,North,351,0.0,3.0,94,0.00,,,0.00,weatherlink.com 1.10,2013-06-25 07:33:00,
2013-06-25 03:48:00,66.9,66.0,30.09,NNW,348,1.0,3.0,95,0.00,,,0.00,weatherlink.com 1.10,2013-06-25 07:48:00,
2013-06-25 04:03:00,66.5,65.0,30.10,NE,52,0.0,3.0,95,0.00,,,0.00,weatherlink.com 1.10,2013-06-25 08:03:00,
2013-06-25 04:18:00,66.3,65.0,30.09,NNW,333,1.0,3.0,96,0.00,,,0.00,weatherlink.com 1.10,2013-06-25 08:18:00,
2013-06-25 04:33:00,66.1,65.0,30.10,NNW,335,1.0,2.0,96,0.00,,,0.00,weatherlink.com 1.10,2013-06-25 08:33:00,
2013-06-25 04:48:00,65.6,65.0,30.10,NE,48,0.0,2.0,96,0.00,,,0.00,weatherlink.com 1.10,2013-06-25 08:48:00,
2013-06-25 05:03:00,65.1,64.0,30.10,SW,215,0.0,2.0,96,0.00,,,0.00,weatherlink.com 1.10,2013-06-25 09:03:00,
2013-06-25 05:18:00,64.8,64.0,30.10,SSW,205,0.0,2.0,96,0.00,,,0.00,weatherlink.com 1.10,2013-06-25 09:18:00,
2013-06-25 05:33:00,64.9,64.0,30.10,NNW,339,0.0,2.0,96,0.00,,,0.00,weatherlink.com 1.10,2013-06-25 09:33:00,
2013-06-25 05:48:00,64.7,64.0,30.10,North,351,0.0,2.0,96,0.00,,,0.00,weatherlink.com 1.10,2013-06-25 09:48:00,
2013-06-25 06:03:00,64.5,64.0,30.11,SSE,168,0.0,2.0,97,0.00,,,0.00,weatherlink.com 1.10,2013-06-25 10:03:00,
2013-06-25 06:18:00,64.3,64.0,30.12,NNE,33,0.0,3.0,97,0.00,,,0.00,weatherlink.com 1.10,2013-06-25 10:18:00,
2013-06-25 06:33:00,64.2,63.0,30.12,East,82,0.0,1.0,97,0.00,,,0.00,weatherlink.com 1.10,2013-06-25 10:33:00,
2013-06-25 06:48:00,64.3,64.0,30.13,NNW,342,0.0,1.0,97,0.00,,,0.00,weatherlink.com 1.10,2013-06-25 10:48:00,
2013-06-25 07:03:00,64.5,64.0,30.13,South,190,0.0,1.0,97,0.00,,,0.00,weatherlink.com 1.10,2013-06-25 11:03:00,
2013-06-25 07:18:00,65.0,64.0,30.14,NNE,19,3.0,4.0,97,0.00,,,0.00,weatherlink.com 1.10,2013-06-25 11:18:00,
2013-06-25 07:33:00,65.5,65.0,30.13,NE,37,0.0,2.0,97,0.00,,,0.00,weatherlink.com 1.10,2013-06-25 11:33:00,
2013-06-25 07:48:00,66.4,65.0,30.13,NNW,330,0.0,2.0,96,0.00,,,0.00,weatherlink.com 1.10,2013-06-25 11:48:00,
2013-06-25 08:03:00,66.5,65.0,30.14,SW,233,0.0,2.0,95,0.00,,,0.00,weatherlink.com 1.10,2013-06-25 12:03:00,
2013-06-25 08:18:00,66.7,65.0,30.14,NNE,25,0.0,3.0,94,0.00,,,0.00,weatherlink.com 1.10,2013-06-25 12:18:00,
2013-06-25 08:33:00,67.2,65.0,30.14,NNW,338,1.0,5.0,93,0.00,,,0.00,weatherlink.com 1.10,2013-06-25 12:33:00,
2013-06-25 08:48:00,67.7,65.0,30.14,WNW,301,0.0,4.0,92,0.00,,,0.00,weatherlink.com 1.10,2013-06-25 12:48:00,
2013-06-25 09:03:00,68.2,66.0,30.14,NE,56,3.0,4.0,92,0.00,,,0.00,weatherlink.com 1.10,2013-06-25 13:03:00,
2013-06-25 09:18:00,69.6,67.0,30.14,NNW,341,2.0,7.0,90,0.00,,,0.00,weatherlink.com 1.10,2013-06-25 13:18:00,
2013-06-25 09:33:00,71.9,68.0,30.15,NNW,330,2.0,3.0,87,0.00,,,0.00,weatherlink.com 1.10,2013-06-25 13:33:00,
2013-06-25 09:48:00,74.0,68.0,30.14,NNW,335,2.0,3.0,82,0.00,,,0.00,weatherlink.com 1.10,2013-06-25 13:48:00,
2013-06-25 10:03:00,72.9,68.0,30.14,North,6,4.0,5.0,84,0.00,,,0.00,weatherlink.com 1.10,2013-06-25 14:03:00,
2013-06-25 10:18:00,73.2,68.0,30.13,NNE,26,5.0,5.0,83,0.00,,,0.00,weatherlink.com 1.10,2013-06-25 14:18:00,
2013-06-25 10:33:00,74.6,68.0,30.13,NE,47,4.0,8.0,81,0.00,,,0.00,weatherlink.com 1.10,2013-06-25 14:33:00,
2013-06-25 10:49:00,75.6,69.0,30.13,North,11,3.0,7.0,79,0.00,,,0.00,weatherlink.com 1.10,2013-06-25 14:49:00,
2013-06-25 11:05:00,76.8,69.0,30.13,North,6,4.0,9.0,76,0.00,,,0.00,weatherlink.com 1.10,2013-06-25 15:05:00,
2013-06-25 11:19:00,77.4,68.0,30.13,NNE,21,3.0,8.0,73,0.00,,,0.00,weatherlink.com 1.10,2013-06-25 15:19:00,
2013-06-25 11:34:00,77.8,68.0,30.13,NW,321,7.0,11.0,71,0.00,,,0.00,weatherlink.com 1.10,2013-06-25 15:34:00,
2013-06-25 11:49:00,78.6,68.0,30.12,NNE,28,4.0,10.0,69,0.00,,,0.00,weatherlink.com 1.10,2013-06-25 15:49:00,
2013-06-25 12:04:00,78.5,68.0,30.12,North,353,6.0,11.0,71,0.00,,,0.00,weatherlink.com 1.10,2013-06-25 16:04:00,
2013-06-25 12:19:00,80.2,69.0,30.11,North,351,8.0,11.0,68,0.00,,,0.00,weatherlink.com 1.10,2013-06-25 16:19:00,
2013-06-25 12:34:00,80.2,68.0,30.12,NNW,333,5.0,9.0,66,0.00,,,0.00,weatherlink.com 1.10,2013-06-25 16:34:00,
2013-06-25 12:49:00,80.1,68.0,30.11,NE,40,4.0,9.0,66,0.00,,,0.00,weatherlink.com 1.10,2013-06-25 16:49:00,
2013-06-25 13:04:00,80.7,68.0,30.10,NNW,333,2.0,5.0,65,0.00,,,0.00,weatherlink.com 1.10,2013-06-25 17:04:00,
2013-06-25 13:19:00,80.7,68.0,30.09,East,86,0.0,3.0,65,0.00,,,0.00,weatherlink.com 1.10,2013-06-25 17:19:00,
2013-06-25 13:34:00,80.7,69.0,30.08,NNE,29,1.0,3.0,68,0.00,,,0.00,weatherlink.com 1.10,2013-06-25 17:34:00,
2013-06-25 13:49:00,81.6,70.0,30.07,NE,36,2.0,2.0,67,0.00,,,0.00,weatherlink.com 1.10,2013-06-25 17:49:00,
2013-06-25 14:04:00,83.2,69.0,30.07,SE,146,0.0,2.0,63,0.00,,,0.00,weatherlink.com 1.10,2013-06-25 18:04:00,
2013-06-25 14:19:00,86.8,69.0,30.06,SSW,195,2.0,5.0,55,0.00,,,0.00,weatherlink.com 1.10,2013-06-25 18:19:00,
2013-06-25 14:34:00,84.7,68.0,30.06,NNW,345,0.0,5.0,57,0.00,,,0.00,weatherlink.com 1.10,2013-06-25 18:34:00,
2013-06-25 14:49:00,81.6,68.0,30.06,NNW,342,5.0,10.0,64,0.00,,,0.00,weatherlink.com 1.10,2013-06-25 18:49:00,
2013-06-25 15:04:00,78.2,68.0,30.06,NNE,28,4.0,10.0,70,0.00,,,0.00,weatherlink.com 1.10,2013-06-25 19:04:00,
2013-06-25 15:19:00,77.5,67.0,30.07,North,354,6.0,9.0,71,0.00,,,0.00,weatherlink.com 1.10,2013-06-25 19:19:00,
2013-06-25 15:34:00,76.7,68.0,30.07,NNW,338,6.0,14.0,75,0.00,,,0.00,weatherlink.com 1.10,2013-06-25 19:34:00,
2013-06-25 15:49:00,76.1,67.0,30.06,North,1,6.0,12.0,74,0.00,,,0.00,weatherlink.com 1.10,2013-06-25 19:49:00,
2013-06-25 16:04:00,75.0,67.0,30.06,NNW,335,4.0,12.0,76,0.00,,,0.00,weatherlink.com 1.10,2013-06-25 20:04:00,
2013-06-25 16:19:00,74.1,67.0,30.06,NNW,333,3.0,8.0,79,0.00,,,0.00,weatherlink.com 1.10,2013-06-25 20:19:00,
2013-06-25 16:34:00,73.7,67.0,30.07,NNE,23,2.0,5.0,80,0.00,,,0.00,weatherlink.com 1.10,2013-06-25 20:34:00,
2013-06-25 16:49:00,73.9,68.0,30.06,NW,308,0.0,3.0,81,0.00,,,0.00,weatherlink.com 1.10,2013-06-25 20:49:00,
2013-06-25 17:04:00,73.1,68.0,30.06,NNW,331,4.0,4.0,84,0.00,,,0.00,weatherlink.com 1.10,2013-06-25 21:04:00,
2013-06-25 17:19:00,73.4,68.0,30.06,NNE,18,2.0,4.0,83,0.00,,,0.00,weatherlink.com 1.10,2013-06-25 21:19:00,
2013-06-25 17:34:00,73.3,68.0,30.05,WSW,248,0.0,4.0,82,0.00,,,0.00,weatherlink.com 1.10,2013-06-25 21:34:00,
2013-06-25 17:49:00,73.1,68.0,30.04,South,176,2.0,2.0,84,0.00,,,0.00,weatherlink.com 1.10,2013-06-25 21:49:00,
2013-06-25 18:04:00,73.9,69.0,30.01,SE,137,4.0,5.0,83,0.00,,,0.00,weatherlink.com 1.10,2013-06-25 22:04:00,
2013-06-25 18:19:00,74.2,68.0,30.00,SSW,193,2.0,4.0,82,0.00,,,0.00,weatherlink.com 1.10,2013-06-25 22:19:00,
2013-06-25 18:34:00,75.4,69.0,30.00,WSW,238,1.0,2.0,80,0.00,,,0.00,weatherlink.com 1.10,2013-06-25 22:34:00,
2013-06-25 18:50:00,79.7,70.0,30.01,NW,321,1.0,2.0,72,0.00,,,0.00,weatherlink.com 1.10,2013-06-25 22:50:00,
2013-06-25 19:04:00,78.8,69.0,30.02,NNE,13,2.0,3.0,73,0.00,,,0.00,weatherlink.com 1.10,2013-06-25 23:04:00,
2013-06-25 19:19:00,77.8,69.0,30.03,NNW,330,2.0,2.0,75,0.00,,,0.00,weatherlink.com 1.10,2013-06-25 23:19:00,
2013-06-25 19:34:00,77.6,70.0,30.03,NE,39,2.0,4.0,76,0.00,,,0.00,weatherlink.com 1.10,2013-06-25 23:34:00,
2013-06-25 19:49:00,75.7,70.0,30.02,NW,323,0.0,2.0,81,0.00,,,0.00,weatherlink.com 1.10,2013-06-25 23:49:00,
2013-06-25 20:04:00,75.5,70.0,30.03,NW,316,0.0,1.0,83,0.00,,,0.00,weatherlink.com 1.10,2013-06-26 00:04:00,
2013-06-25 20:19:00,74.8,70.0,30.03,SW,217,0.0,1.0,85,0.00,,,0.00,weatherlink.com 1.10,2013-06-26 00:19:00,
2013-06-25 20:34:00,74.3,70.0,30.03,NNW,328,0.0,2.0,85,0.00,,,0.00,weatherlink.com 1.10,2013-06-26 00:34:00,
2013-06-25 20:49:00,73.9,70.0,30.03,NW,316,0.0,1.0,87,0.00,,,0.00,weatherlink.com 1.10,2013-06-26 00:49:00,
2013-06-25 21:04:00,72.0,69.0,30.03,West,264,0.0,1.0,90,0.00,,,0.00,weatherlink.com 1.10,2013-06-26 01:04:00,
2013-06-25 21:19:00,71.0,68.0,30.03,SW,218,0.0,0.0,91,0.00,,,0.00,weatherlink.com 1.10,2013-06-26 01:19:00,
2013-06-25 21:34:00,70.2,68.0,30.03,NNE,20,0.0,1.0,92,0.00,,,0.00,weatherlink.com 1.10,2013-06-26 01:34:00,
2013-06-25 21:49:00,70.3,68.0,30.04,NW,316,0.0,1.0,93,0.00,,,0.00,weatherlink.com 1.10,2013-06-26 01:49:00,
2013-06-25 22:04:00,69.7,68.0,30.05,NW,316,0.0,2.0,94,0.00,,,0.00,weatherlink.com 1.10,2013-06-26 02:04:00,
2013-06-25 22:19:00,69.0,67.0,30.04,NW,316,0.0,1.0,94,0.00,,,0.00,weatherlink.com 1.10,2013-06-26 02:19:00,
2013-06-25 22:34:00,68.6,67.0,30.04,WNW,302,1.0,1.0,95,0.00,,,0.00,weatherlink.com 1.10,2013-06-26 02:34:00,
2013-06-25 22:49:00,68.5,67.0,30.04,NNW,332,0.0,1.0,95,0.00,,,0.00,weatherlink.com 1.10,2013-06-26 02:49:00,
2013-06-25 23:04:00,68.1,67.0,30.04,SW,229,0.0,1.0,95,0.00,,,0.00,weatherlink.com 1.10,2013-06-26 03:04:00,
2013-06-25 23:19:00,67.7,67.0,30.04,NW,308,0.0,0.0,96,0.00,,,0.00,weatherlink.com 1.10,2013-06-26 03:19:00,
2013-06-25 23:34:00,67.4,66.0,30.04,NE,55,2.0,2.0,96,0.00,,,0.00,weatherlink.com 1.10,2013-06-26 03:34:00,
2013-06-25 23:49:00,67.6,67.0,30.04,NNW,328,0.0,3.0,97,0.00,,,0.00,weatherlink.com 1.10,2013-06-26 03:49:00,